EN

Hourly Weather Bar-le-Duc

Today, 20 January, Wednesday

Time Temperature Precipitation Wind Pressure Humidity
00:00 +1°C° 0 mm 6 mps 736 mmHg 79%
01:00 +1°C° 0 mm 5 mps 736 mmHg 79%
02:00 +1°C° 0 mm 5 mps 735 mmHg 79%
03:00 +1°C° 0 mm 5 mps 735 mmHg 79%
04:00 +1°C° 0 mm 6 mps 734 mmHg 78%
05:00 +1°C° 0 mm 6 mps 734 mmHg 78%
06:00 +1°C° 0 mm 6 mps 733 mmHg 77%
07:00 +2°C° 0 mm 6 mps 733 mmHg 78%
08:00 +2°C° 0 mm 6 mps 733 mmHg 78%
09:00 +3°C° 0 mm 6 mps 733 mmHg 78%
10:00 +4°C° 0 mm 7 mps 732 mmHg 78%
11:00 +5°C° 0 mm 7 mps 732 mmHg 77%
12:00 +8°C° 0 mm 7 mps 731 mmHg 76%
13:00 +8°C° 0 mm 7 mps 731 mmHg 78%
14:00 +8°C° 0 mm 7 mps 730 mmHg 79%
15:00 +8°C° 0 mm 7 mps 730 mmHg 80%
16:00 +6°C° 0 mm 7 mps 729 mmHg 80%
17:00 +6°C° 0 mm 7 mps 729 mmHg 80%
18:00 +5°C° 0 mm 8 mps 728 mmHg 80%
19:00 +6°C° 0 mm 8 mps 728 mmHg 79%
20:00 +6°C° 0 mm 9 mps 728 mmHg 77%
21:00 +6°C° 0 mm 10 mps 728 mmHg 76%
22:00 +6°C° 0 mm 10 mps 727 mmHg 75%
23:00 +6°C° 0 mm 11 mps 727 mmHg 75%

Tomorrow, 21 January, Thursday

Time Temperature Precipitation Wind Pressure Humidity
00:00 +7°C° 0 mm 12 mps 726 mmHg 75%
01:00 +7°C° 0.1 mm 12 mps 726 mmHg 75%
02:00 +7°C° 0.1 mm 13 mps 725 mmHg 76%
03:00 +7°C° 0.1 mm 13 mps 725 mmHg 77%
04:00 +7°C° 0.2 mm 13 mps 725 mmHg 78%
05:00 +7°C° 0.2 mm 12 mps 726 mmHg 80%
06:00 +7°C° 0.2 mm 12 mps 726 mmHg 81%
07:00 +6°C° 1.1 mm 10 mps 727 mmHg 80%
08:00 +5°C° 1.1 mm 9 mps 728 mmHg 79%
09:00 +4°C° 1.1 mm 7 mps 728 mmHg 78%
10:00 +5°C° 0 mm 8 mps 728 mmHg 76%
11:00 +5°C° 0 mm 8 mps 728 mmHg 73%
12:00 +6°C° 0 mm 8 mps 729 mmHg 71%
13:00 +6°C° 0 mm 8 mps 728 mmHg 75%
14:00 +6°C° 0 mm 7 mps 727 mmHg 79%
15:00 +7°C° 0 mm 6 mps 726 mmHg 84%
16:00 +6°C° 0.8 mm 8 mps 725 mmHg 85%
17:00 +6°C° 0.8 mm 9 mps 724 mmHg 86%
18:00 +6°C° 0.8 mm 11 mps 723 mmHg 87%
19:00 +7°C° 0.6 mm 11 mps 723 mmHg 85%
20:00 +7°C° 0.6 mm 12 mps 722 mmHg 83%
21:00 +7°C° 0.6 mm 12 mps 722 mmHg 81%
22:00 +7°C° 0.3 mm 13 mps 721 mmHg 81%
23:00 +7°C° 0.3 mm 13 mps 721 mmHg 82%

Day after tomorrow, 22 January, Friday

Time Temperature Precipitation Wind Pressure Humidity
00:00 +7°C° 0.3 mm 13 mps 721 mmHg 82%
01:00 +6°C° 0.5 mm 11 mps 722 mmHg 84%
02:00 +5°C° 0.5 mm 8 mps 723 mmHg 86%
03:00 +3°C° 0.5 mm 6 mps 724 mmHg 88%
04:00 +3°C° 0.2 mm 5 mps 724 mmHg 89%
05:00 +4°C° 0.2 mm 4 mps 724 mmHg 90%
06:00 +3°C° 0.2 mm 3 mps 724 mmHg 91%
07:00 +3°C° 0.1 mm 3 mps 724 mmHg 90%
08:00 +3°C° 0.1 mm 3 mps 724 mmHg 89%
09:00 +3°C° 0.1 mm 3 mps 724 mmHg 88%
10:00 +4°C° 0.1 mm 3 mps 725 mmHg 84%
11:00 +4°C° 0.1 mm 4 mps 725 mmHg 80%
12:00 +5°C° 0.1 mm 5 mps 726 mmHg 76%
13:00 +5°C° 0.1 mm 4 mps 726 mmHg 76%
14:00 +5°C° 0.1 mm 4 mps 726 mmHg 77%
15:00 +5°C° 0.1 mm 3 mps 726 mmHg 77%
16:00 +4°C° 0 mm 3 mps 726 mmHg 81%
17:00 +3°C° 0 mm 3 mps 726 mmHg 86%
18:00 +3°C° 0 mm 2 mps 726 mmHg 90%
19:00 +2°C° 0 mm 3 mps 726 mmHg 91%
20:00 +1°C° 0 mm 3 mps 726 mmHg 92%
21:00 +1°C° 0 mm 3 mps 726 mmHg 94%
22:00 +1°C° 0 mm 3 mps 726 mmHg 94%
23:00 0°C° 0 mm 4 mps 726 mmHg 94%

23 January, Saturday

Time Temperature Precipitation Wind Pressure Humidity
00:00 0°C° 0 mm 4 mps 726 mmHg 94%
01:00 0°C° 0 mm 4 mps 726 mmHg 94%
02:00 0°C° 0 mm 4 mps 725 mmHg 95%
03:00 0°C° 0 mm 4 mps 725 mmHg 96%
04:00 0°C° 0 mm 5 mps 725 mmHg 95%
05:00 0°C° 0 mm 5 mps 725 mmHg 94%
06:00 0°C° 0 mm 5 mps 725 mmHg 94%
07:00 +1°C° 0 mm 5 mps 725 mmHg 93%
08:00 +1°C° 0 mm 5 mps 725 mmHg 92%
09:00 +1°C° 0 mm 5 mps 726 mmHg 91%
10:00 +1°C° 0 mm 5 mps 726 mmHg 90%
11:00 +1°C° 0 mm 5 mps 726 mmHg 89%
12:00 +1°C° 0 mm 4 mps 726 mmHg 89%
13:00 +1°C° 0.1 mm 4 mps 727 mmHg 88%
14:00 +1°C° 0.1 mm 4 mps 727 mmHg 88%
15:00 +1°C° 0.1 mm 4 mps 727 mmHg 88%
16:00 +2°C° 0 mm 3 mps 728 mmHg 90%
17:00 +1°C° 0 mm 3 mps 728 mmHg 92%
18:00 +1°C° 0 mm 2 mps 729 mmHg 93%
19:00 +1°C° 0 mm 2 mps 729 mmHg 93%
20:00 -1°C° 0 mm 2 mps 729 mmHg 93%
21:00 -1°C° 0 mm 2 mps 729 mmHg 93%
22:00 -1°C° 0 mm 2 mps 729 mmHg 94%
23:00 -1°C° 0 mm 2 mps 730 mmHg 94%

24 January, Sunday

Time Temperature Precipitation Wind Pressure Humidity
00:00 -1°C° 0 mm 2 mps 730 mmHg 95%
01:00 -1°C° 0.1 mm 3 mps 729 mmHg 95%
02:00 -2°C° 0.1 mm 4 mps 729 mmHg 95%
03:00 -1°C° 0.1 mm 4 mps 729 mmHg 95%
04:00 -2°C° 0 mm 4 mps 729 mmHg 95%
05:00 -2°C° 0 mm 5 mps 729 mmHg 94%
06:00 -2°C° 0 mm 5 mps 729 mmHg 94%
07:00 -2°C° 0 mm 5 mps 729 mmHg 92%
08:00 -1°C° 0 mm 5 mps 729 mmHg 91%
09:00 -1°C° 0 mm 5 mps 729 mmHg 89%
10:00 -1°C° 1 mm 5 mps 729 mmHg 92%
11:00 -1°C° 1 mm 5 mps 728 mmHg 94%
12:00 -1°C° 1 mm 5 mps 728 mmHg 97%
13:00 -1°C° 0.3 mm 5 mps 728 mmHg 93%
14:00 0°C° 0.3 mm 5 mps 728 mmHg 89%
15:00 0°C° 0.3 mm 5 mps 728 mmHg 85%
16:00 -1°C° 0.2 mm 5 mps 728 mmHg 87%
17:00 -1°C° 0.2 mm 5 mps 728 mmHg 88%
18:00 -2°C° 0.2 mm 5 mps 729 mmHg 90%
19:00 -3°C° 0.5 mm 6 mps 729 mmHg 91%
20:00 -3°C° 0.5 mm 6 mps 730 mmHg 93%
21:00 -3°C° 0.5 mm 7 mps 731 mmHg 95%
22:00 -3°C° 0.3 mm 7 mps 731 mmHg 95%
23:00 -3°C° 0.3 mm 6 mps 731 mmHg 95%

25 January, Monday

Time Temperature Precipitation Wind Pressure Humidity
00:00 -3°C° 0.3 mm 6 mps 731 mmHg 95%
01:00 -3°C° 0.9 mm 7 mps 731 mmHg 95%
02:00 -3°C° 0.9 mm 7 mps 731 mmHg 96%
03:00 -4°C° 0.9 mm 8 mps 731 mmHg 97%
04:00 -2°C° 1 mm 7 mps 731 mmHg 97%
05:00 -2°C° 1 mm 6 mps 731 mmHg 97%
06:00 -2°C° 1 mm 6 mps 731 mmHg 97%
07:00 -2°C° 0.1 mm 6 mps 732 mmHg 97%
08:00 -2°C° 0.1 mm 6 mps 733 mmHg 96%
09:00 -2°C° 0.1 mm 6 mps 733 mmHg 96%
10:00 -2°C° 0.1 mm 6 mps 734 mmHg 96%
11:00 0°C° 0.1 mm 5 mps 734 mmHg 95%
12:00 0°C° 0.1 mm 5 mps 735 mmHg 95%
13:00 0°C° 0.1 mm 5 mps 735 mmHg 94%
14:00 0°C° 0.1 mm 4 mps 735 mmHg 93%
15:00 +1°C° 0.1 mm 4 mps 736 mmHg 92%
16:00 0°C° 0.1 mm 4 mps 736 mmHg 93%
17:00 0°C° 0.1 mm 3 mps 737 mmHg 94%
18:00 -1°C° 0.1 mm 3 mps 737 mmHg 94%
19:00 -1°C° 0 mm 3 mps 738 mmHg 95%
20:00 -1°C° 0 mm 3 mps 738 mmHg 95%
21:00 -2°C° 0 mm 3 mps 739 mmHg 96%
22:00 -2°C° 0 mm 3 mps 739 mmHg 96%
23:00 -2°C° 0 mm 3 mps 740 mmHg 96%
Show more

We Need Your Consent

Meteoprog and our Service Providers may store and access personal data such as cookies, device identifiers or other similar technologies on your device and process such data to personalise content and ads, as well as provide social media features and to analyse the traffic.

  • Store and/or access information on your device

    Cookies, device identifiers or other information can be stored or accessed on your device for the purposes indicated above.

  • Personalised ads and content, ad and content measurement, audience insights, and products development

    Ads and content can be personalised based on a profile. More data can be added to better personalise ads and content. Ad and content performance can be measured. Insights about the audience who saw the ads and content can be derived. Such data can be used to develop or improve user’s experience, systems and software.

By clicking ‘I Agree’ you will allow the use of indicated cookies, device identifiers, web beacons or other similar technologies. Your settings can be changed in the browser on your device.

For certain purposes, legitimate interests may be relied on, rather than consent. You can read more about this in our Privacy and Cookie Policy.